Voltar ao catálogo

STARLINK-37069

AtivoComunicaçõesSSO
NORAD 68158·PAYLOAD·🇺🇸 United States

Lançado Mar 13, 2026 de Vandenberg Space Force Base

Loading…

Próximas Passagens (próximas 24 horas)

TLE

AtualizadoSource: CelesTrak SupGP

Época: Sep 14, 2026, 22:55 UTC

1 68158C 26049S   26257.95534722  .00044785  00000+0  13903-2 0  2570
2 68158  97.2841 277.9401 0001572  86.9674  69.9142 15.33414451    19

Acompanhe STARLINK-37069 em tempo real com AllMySat

Download on the App Store